Flag for Netherlands Weather past 2 weeks in Almere, Netherlands

Now
64 °F

Passing clouds.


Feels Like: 64 °F
Forecast: 63 / 75 °F
Wind: 5 mph from West

Location: Amsterdam Schiphol Airport

Current Time: Jul 26, 2014 at 5:34:44 AM

Latest Report: Jul 26, 2014 at 4:55 AM


Visibility: 4 mi

Pressure: 29.92 "Hg

Humidity: 100%

Dew point: 64 °F

Location of AlmereLocation

Historic Weather in Almere — Graph

°F

Almere temperature yesterday

Maximum temperature yesterday: 72 °F (at 10:55 AM)
Minimum temperature yesterday: 63 °F (at 3:55 AM)
Average temperature yesterday: 67 °F

Past Weeks' High & Low Weather Summary

 TemperatureHumidityPressure
High93 °F (Jul 19, 3:55 PM)100% (Jul 11, 4:25 AM)30.18 "Hg (Jul 11, 4:25 AM)
Low57 °F (Jul 15, 4:55 AM)30% (Jul 19, 3:55 PM)29.71 "Hg (Jul 13, 2:55 PM)
Average70 °F77%29.97 "Hg
* Reported Jul 11 4:25 AM — Jul 26 4:25 AM, Almere, Weather by CustomWeather, © 2014

Note: Actual official high and low records may vary slightly from our data, if they occured in-between our weather recording intervals... More about our weather records

Advertising

Almere weather history for previous 24 hours

 ConditionsComfort  
Time TempWeatherWind HumidityBarometerVisibility
4:25 AM
Jul 26
64 °FFog.1 mph94%29.95 "Hg3 mi
3:55 AM63 °FFog.3 mph100%29.95 "Hg3 mi
3:25 AM63 °FClear.5 mph100%29.95 "Hg4 mi
2:55 AM63 °FClear.6 mph100%29.95 "Hg4 mi
2:25 AM63 °FClear.3 mph100%29.95 "Hg4 mi
1:55 AM63 °FPassing clouds.2 mph100%29.95 "Hg4 mi
1:25 AM63 °FLight rain. Passing clouds.No wind100%29.95 "Hg5 mi
12:55 AM63 °FClear.No wind100%29.95 "Hg5 mi
12:25 AM63 °FPassing clouds.No wind100%29.95 "Hg5 mi
11:55 PM
Jul 25
63 °FPassing clouds.1 mph100%29.95 "Hg5 mi
11:25 PM63 °FPassing clouds.1 mph100%29.95 "Hg6 mi
10:55 PM63 °FClear.2 mph100%29.95 "Hg10 mi
10:25 PM64 °FSunny.2 mph94%29.95 "Hg10 mi
9:55 PM64 °FSunny.2 mph88%29.95 "Hg10 mi
9:25 PM64 °FScattered clouds.2 mph88%29.95 "HgN/A
8:55 PM64 °FPartly sunny.3 mph94%29.95 "HgN/A
8:25 PM64 °FScattered clouds.3 mph94%29.95 "HgN/A
7:55 PM64 °FSprinkles. Scattered clouds.7 mph94%29.95 "HgN/A
7:25 PM64 °FRain showers. Broken clouds.6 mph94%29.95 "Hg4 mi
6:55 PM66 °FBroken clouds.5 mph83%29.95 "HgN/A
6:25 PM64 °FBroken clouds.7 mph88%29.95 "HgN/A
5:55 PM66 °FBroken clouds.10 mph83%29.98 "HgN/A
5:25 PM66 °FPartly sunny.10 mph83%29.98 "HgN/A
4:55 PM66 °FLight rain. Broken clouds.13 mph83%29.98 "HgN/A
4:25 PM66 °FLight rain. Partly sunny.12 mph88%29.98 "HgN/A
3:55 PM66 °FSprinkles. Scattered clouds.8 mph94%29.98 "HgN/A
3:25 PM66 °FSprinkles. Broken clouds.13 mph88%29.98 "HgN/A
2:55 PM68 °FSprinkles. Scattered clouds.8 mph83%30.01 "HgN/A
2:25 PM70 °FScattered showers. Passing clouds.8 mph73%30.01 "HgN/A
1:55 PM70 °FPassing clouds.7 mph69%30.01 "HgN/A
1:25 PM70 °FSprinkles. Passing clouds.12 mph69%30.01 "HgN/A
12:55 PM72 °FScattered showers. Passing clouds.13 mph69%30.01 "HgN/A
12:25 PM72 °FScattered showers. Passing clouds.10 mph65%30.01 "HgN/A
11:55 AM72 °FSprinkles. Passing clouds.12 mph65%30.01 "HgN/A
11:25 AM72 °FPassing clouds.6 mph61%30.01 "HgN/A
10:55 AM72 °FPassing clouds.3 mph65%30.01 "HgN/A
10:25 AM70 °FSunny.2 mph64%30.01 "Hg10 mi
9:55 AM70 °FPassing clouds.5 mph69%30.01 "HgN/A
9:25 AM68 °FPassing clouds.7 mph69%30.01 "HgN/A
8:55 AM68 °FPassing clouds.7 mph73%30.01 "HgN/A
8:25 AM68 °FPassing clouds.8 mph69%30.01 "HgN/A
7:55 AM66 °FPassing clouds.8 mph73%30.01 "HgN/A
7:25 AM68 °FPassing clouds.9 mph64%30.01 "HgN/A
6:55 AM68 °FSunny.10 mph73%30.01 "Hg10 mi
6:25 AM66 °FPassing clouds.8 mph73%30.01 "HgN/A
5:55 AM66 °FScattered showers. Clear.8 mph73%30.01 "HgN/A
5:25 AM64 °FSprinkles. Passing clouds.5 mph78%30.01 "HgN/A
Weather by CustomWeather, © 2014

See weather overviewHow to use our weather pages